Home   Weather   Pinneberg   Past weeks

Flag for Germany Past Weather in Pinneberg, Schleswig-Holstein, Germany — Yesterday and Last 2 Weeks

Now
46 °F

Drizzle. Fog.


Feels Like: 41 °F
Forecast: 42 / 46 °F
Wind: 10 mph from Southwest

Location: Hamburg-Fuhlsbuettel

Current Time: Dec 9, 2016 at 5:12:34 am

Latest Report: Dec 9, 2016 at 4:20 am


Visibility: 1 mi

Pressure: 30.18 "Hg

Humidity: 93%

Dew Point: 45 °F

Location of PinnebergLocation

Past Weather in Pinneberg — Graph

°F

Pinneberg Temperature Yesterday

Maximum temperature yesterday: 48 °F (at 2:20 pm)
Minimum temperature yesterday: 45 °F (at 12:20 am)
Average temperature yesterday: 46 °F

High & Low Weather Summary for the Past Weeks

 TemperatureHumidityPressure
High48 °F (Dec 1, 12:20 pm)100% (Nov 24, 7:50 am)30.54 "Hg (Nov 24, 7:50 am)
Low19 °F (Nov 29, 2:20 am)53% (Dec 2, 12:20 pm)29.89 "Hg (Dec 1, 10:20 pm)
Average36 °F88%30.27 "Hg
* Reported Nov 24 3:20 am — Dec 9 3:50 am, Pinneberg, Weather by CustomWeather, © 2016

Note: Actual official high and low records may vary slightly from our data, if they occured in-between our weather recording intervals... More about our weather records

Advertising

Pinneberg Weather History for the Previous 24 Hours

Scroll right to see more
 ConditionsComfort  
Time TempWeatherWind HumidityBarometerVisibility
3:50 am
Fri, Dec 9
45 °FDrizzle. Fog.10 mph100%30.18 "Hg1 mi
3:20 am45 °FDrizzle. Fog.13 mph100%30.18 "Hg1 mi
2:50 am45 °FDrizzle. Low clouds.12 mph100%30.18 "Hg1 mi
2:20 am45 °FDrizzle. Low clouds.12 mph100%30.18 "Hg1 mi
1:50 am45 °FDrizzle. Low clouds.13 mph93%30.15 "Hg2 mi
1:20 am45 °FFog.13 mph93%30.18 "Hg3 mi
12:50 am45 °FFog.12 mph93%30.18 "Hg3 mi
12:20 am45 °FFog.12 mph87%30.18 "Hg3 mi
11:50 pm
Thu, Dec 8
46 °FPassing clouds.13 mph82%30.18 "HgN/A
11:20 pm45 °FPassing clouds.10 mph81%30.18 "HgN/A
10:50 pm45 °FPassing clouds.9 mph87%30.21 "HgN/A
10:20 pm46 °FPassing clouds.10 mph71%30.21 "HgN/A
9:50 pm45 °FSprinkles. Passing clouds.10 mph76%30.18 "HgN/A
9:20 pm46 °FSprinkles. Passing clouds.12 mph71%30.18 "HgN/A
8:50 pm46 °FSprinkles. Passing clouds.10 mph71%30.18 "HgN/A
8:20 pm46 °FPassing clouds.10 mph71%30.18 "HgN/A
7:50 pm46 °FPassing clouds.10 mph71%30.18 "HgN/A
7:20 pm46 °FPassing clouds.10 mph76%30.18 "HgN/A
6:50 pm48 °FPassing clouds.10 mph71%30.18 "HgN/A
6:20 pm46 °FLight rain. Passing clouds.10 mph82%30.18 "HgN/A
5:50 pm48 °FLight rain. Passing clouds.9 mph71%30.18 "HgN/A
5:20 pm48 °FLight rain. Passing clouds.8 mph76%30.18 "HgN/A
4:50 pm46 °FOvercast.7 mph87%30.18 "HgN/A
4:20 pm46 °FPassing clouds.7 mph87%30.18 "HgN/A
3:50 pm45 °FDrizzle. Partly sunny.8 mph100%30.18 "Hg2 mi
3:20 pm46 °FDrizzle. Overcast.12 mph87%30.18 "Hg2 mi
2:50 pm46 °FLight rain. Low clouds.10 mph82%30.18 "Hg5 mi
2:20 pm48 °FLight rain. Partly sunny.12 mph76%30.21 "HgN/A
1:50 pm46 °FDrizzle. Partly sunny.12 mph82%30.21 "HgN/A
1:20 pm46 °FLight rain. Low clouds.12 mph82%30.21 "HgN/A
12:50 pm46 °FLight rain. Overcast.13 mph76%30.21 "HgN/A
12:20 pm46 °FPartly sunny.12 mph76%30.21 "HgN/A
11:50 am46 °FLight rain. Overcast.10 mph76%30.21 "HgN/A
11:20 am46 °FOvercast.10 mph76%30.24 "HgN/A
10:50 am46 °FOvercast.13 mph76%30.24 "HgN/A
10:20 am46 °FOvercast.14 mph76%30.24 "HgN/A
9:50 am46 °FPartly sunny.14 mph76%30.24 "HgN/A
9:20 am46 °FPartly sunny.12 mph76%30.24 "HgN/A
8:50 am46 °FPartly sunny.12 mph76%30.24 "HgN/A
8:20 am46 °FPassing clouds.13 mph71%30.24 "HgN/A
7:50 am45 °FPassing clouds.10 mph76%30.24 "HgN/A
7:20 am45 °FPassing clouds.10 mph76%30.21 "HgN/A
6:50 am45 °FPassing clouds.12 mph76%30.21 "HgN/A
6:20 am45 °FClear.15 mph76%30.21 "Hg10 mi
5:50 am45 °FClear.15 mph76%30.21 "Hg10 mi
5:20 am45 °FClear.15 mph76%30.21 "Hg10 mi
Weather by CustomWeather, © 2016

See weather overviewHow to use our weather pages